Precipitable_Water
1.68 1.78 1.86 1.86 1.90 1.95 1.96 1.99 2.05 2.07 2.10 2.09 2.10 2.09 2.11 2.14 2.14 2.13 2.14 2.13 2.14 2.15 2.20 2.22 2.25 2.25 2.22 2.17 2.13 2.12 2.13 2.16 2.19 2.15 2.06 1.98 1.89 1.87 1.94 1.99 1.96 1.92 1.91 1.84 1.83 1.81 1.76 1.69 1.65 1.54 1.59 1.74 1.75 1.63 1.61 1.60 1.53 1.51 1.49 1.46 1.41 1.35 1.30 1.24 1.19 1.14 1.11 1.13 1.12 1.12 1.15 1.17 1.16 1.15 1.15 1.15 1.15 1.14 1.12 1.13 1.14 1.13 1.11 1.07 1.05
1.65 1.75 1.81 1.82 1.88 1.93 1.96 2.02 2.01 2.05 2.09 2.08 2.13 2.13 2.13 2.14 2.14 2.14 2.14 2.13 2.12 2.16 2.19 2.20 2.24 2.25 2.25 2.18 2.19 2.15 2.14 2.16 2.18 2.19 2.11 2.03 1.95 1.90 1.94 2.00 1.99 1.95 1.90 1.83 1.84 1.86 1.82 1.75 1.71 1.59 1.49 1.68 1.76 1.68 1.59 1.58 1.55 1.54 1.52 1.48 1.43 1.36 1.31 1.26 1.20 1.15 1.09 1.11 1.12 1.11 1.11 1.13 1.15 1.15 1.15 1.15 1.15 1.13 1.12 1.12 1.12 1.11 1.10 1.07 1.05
1.62 1.69 1.78 1.83 1.91 1.95 2.01 2.06 2.01 2.03 2.11 2.13 2.20 2.20 2.20 2.18 2.17 2.16 2.15 2.15 2.15 2.19 2.19 2.16 2.18 2.19 2.19 2.18 2.20 2.21 2.18 2.19 2.22 2.22 2.17 2.10 2.04 1.98 1.96 1.99 2.00 1.97 1.94 1.92 1.86 1.86 1.87 1.81 1.80 1.70 1.52 1.53 1.68 1.69 1.62 1.58 1.56 1.58 1.56 1.51 1.45 1.39 1.31 1.28 1.24 1.17 1.11 1.08 1.09 1.11 1.12 1.12 1.11 1.12 1.12 1.13 1.13 1.13 1.11 1.11 1.11 1.12 1.10 1.08 1.06
1.68 1.71 1.78 1.86 1.92 1.98 2.05 2.04 2.00 2.07 2.14 2.17 2.22 2.23 2.20 2.21 2.23 2.25 2.24 2.19 2.15 2.18 2.20 2.16 2.14 2.17 2.18 2.14 2.17 2.19 2.20 2.21 2.22 2.23 2.21 2.17 2.10 2.05 2.02 2.02 2.02 2.00 1.98 1.92 1.90 1.89 1.88 1.87 1.85 1.78 1.66 1.50 1.57 1.70 1.63 1.61 1.56 1.52 1.53 1.51 1.47 1.42 1.34 1.28 1.25 1.19 1.14 1.10 1.10 1.09 1.11 1.12 1.11 1.11 1.11 1.11 1.11 1.11 1.10 1.10 1.10 1.10 1.09 1.08 1.06
1.75 1.82 1.88 1.92 1.98 2.02 2.04 2.05 2.08 2.11 2.14 2.19 2.22 2.23 2.18 2.17 2.19 2.25 2.23 2.19 2.15 2.15 2.20 2.19 2.14 2.16 2.17 2.16 2.21 2.18 2.22 2.19 2.18 2.21 2.20 2.19 2.12 2.09 2.04 2.00 1.99 2.02 2.00 1.95 1.93 1.85 1.87 1.87 1.87 1.83 1.74 1.64 1.52 1.54 1.64 1.62 1.60 1.50 1.42 1.42 1.41 1.39 1.36 1.30 1.26 1.21 1.15 1.11 1.10 1.11 1.09 1.10 1.11 1.10 1.11 1.11 1.12 1.12 1.10 1.09 1.09 1.08 1.07 1.06 1.04
1.86 1.92 1.97 2.02 2.05 2.04 2.05 2.07 2.12 2.11 2.13 2.18 2.18 2.20 2.13 2.11 2.15 2.14 2.13 2.08 2.03 2.08 2.10 2.09 2.14 2.19 2.19 2.19 2.19 2.18 2.21 2.17 2.16 2.17 2.22 2.19 2.15 2.10 2.10 2.02 1.98 1.99 1.99 1.98 1.95 1.90 1.86 1.85 1.84 1.85 1.80 1.73 1.64 1.53 1.51 1.58 1.62 1.61 1.51 1.44 1.37 1.27 1.25 1.25 1.24 1.20 1.16 1.12 1.09 1.08 1.09 1.10 1.09 1.08 1.08 1.10 1.10 1.10 1.10 1.08 1.07 1.07 1.06 1.04 1.03
1.86 1.90 1.96 2.02 2.00 2.01 2.04 2.09 2.12 2.13 2.15 2.20 2.14 2.13 2.12 2.06 2.10 2.03 2.04 2.03 2.01 2.02 2.02 2.04 2.07 2.09 2.15 2.21 2.18 2.20 2.19 2.17 2.18 2.14 2.17 2.19 2.16 2.14 2.14 2.04 1.96 2.00 2.04 2.00 1.98 1.93 1.85 1.86 1.86 1.82 1.83 1.80 1.73 1.66 1.55 1.48 1.55 1.64 1.59 1.52 1.49 1.41 1.23 1.14 1.16 1.18 1.17 1.14 1.11 1.09 1.07 1.08 1.08 1.08 1.06 1.05 1.05 1.05 1.05 1.06 1.05 1.05 1.03 1.02 1.01
1.79 1.85 1.91 1.97 1.97 1.98 2.05 2.10 2.10 2.13 2.15 2.16 2.10 2.06 2.08 2.03 2.03 2.01 1.89 1.95 1.97 1.96 2.04 2.03 2.09 2.09 2.14 2.18 2.22 2.22 2.14 2.17 2.17 2.16 2.18 2.18 2.13 2.13 2.13 2.03 1.99 2.02 2.03 2.01 1.96 1.91 1.86 1.86 1.87 1.83 1.80 1.81 1.78 1.73 1.69 1.61 1.52 1.50 1.54 1.55 1.52 1.49 1.40 1.23 1.11 1.13 1.15 1.13 1.11 1.09 1.07 1.07 1.07 1.07 1.06 1.05 1.05 1.04 1.03 1.03 1.02 1.02 1.02 1.00 1.00
1.80 1.83 1.86 1.92 1.95 2.00 2.07 2.07 2.11 2.09 2.10 2.08 2.07 2.09 2.06 1.98 1.94 1.97 1.98 1.92 1.94 1.97 2.04 2.07 2.08 2.11 2.14 2.16 2.19 2.21 2.15 2.11 2.13 2.17 2.19 2.12 2.12 2.15 2.12 2.08 2.06 2.09 2.06 2.01 1.96 1.90 1.88 1.86 1.84 1.80 1.77 1.77 1.79 1.78 1.74 1.72 1.67 1.58 1.50 1.47 1.47 1.47 1.44 1.35 1.21 1.10 1.08 1.09 1.07 1.05 1.03 1.03 1.05 1.05 1.05 1.04 1.03 1.02 1.01 1.01 1.00 0.99 1.00 1.00 1.00
1.83 1.81 1.85 1.94 2.01 2.05 2.06 2.07 2.08 2.09 2.09 2.06 2.03 2.08 2.04 1.95 1.84 1.94 1.97 1.94 1.95 1.97 2.00 2.06 2.08 2.08 2.12 2.16 2.16 2.15 2.12 2.12 2.14 2.14 2.11 2.08 2.09 2.08 2.09 2.12 2.08 2.03 2.05 2.07 1.98 1.95 1.91 1.87 1.83 1.80 1.76 1.75 1.76 1.77 1.77 1.73 1.71 1.67 1.60 1.54 1.47 1.42 1.37 1.33 1.27 1.21 1.17 1.11 1.07 1.04 1.01 0.99 0.99 1.00 1.01 1.00 1.00 0.99 0.99 0.98 0.97 0.97 0.98 0.98 0.99
1.85 1.78 1.82 1.97 2.03 2.05 2.04 2.07 2.09 2.11 2.08 2.01 1.99 1.99 1.94 1.92 1.86 1.88 1.95 1.98 1.97 1.97 2.00 2.05 2.06 2.09 2.10 2.15 2.14 2.10 2.15 2.18 2.18 2.12 2.12 2.11 2.09 2.10 2.12 2.10 2.11 2.10 2.09 2.08 2.03 1.99 1.95 1.91 1.85 1.79 1.78 1.76 1.73 1.73 1.73 1.72 1.71 1.69 1.65 1.60 1.55 1.49 1.42 1.36 1.31 1.28 1.26 1.24 1.20 1.14 1.09 1.05 1.00 0.99 0.99 1.00 1.00 0.99 0.99 0.98 0.98 0.99 1.00 1.02 1.04
1.82 1.78 1.86 1.98 2.02 2.05 2.05 2.09 2.10 2.10 2.03 1.93 1.93 1.91 1.85 1.88 1.93 1.90 1.83 1.86 1.89 1.85 1.97 2.03 2.05 2.06 2.04 2.10 2.12 2.12 2.12 2.13 2.12 2.10 2.12 2.13 2.11 2.13 2.10 2.15 2.15 2.16 2.14 2.10 2.08 2.01 1.97 1.94 1.90 1.84 1.81 1.80 1.77 1.74 1.72 1.71 1.70 1.68 1.66 1.62 1.57 1.55 1.51 1.44 1.38 1.34 1.31 1.30 1.29 1.26 1.22 1.18 1.15 1.11 1.08 1.07 1.07 1.08 1.07 1.07 1.08 1.08 1.09 1.09 1.10
1.79 1.78 1.89 2.00 2.05 2.11 2.08 2.09 2.11 2.09 2.01 1.94 1.94 1.93 1.94 1.92 1.88 1.81 1.65 1.57 1.59 1.67 1.79 1.99 1.89 1.85 1.93 1.98 2.03 2.09 2.08 2.08 2.07 2.07 2.09 2.14 2.17 2.14 2.17 2.15 2.15 2.09 2.15 2.15 2.11 2.04 2.01 2.00 1.93 1.88 1.84 1.81 1.77 1.74 1.74 1.71 1.69 1.68 1.68 1.66 1.62 1.56 1.53 1.50 1.47 1.42 1.39 1.37 1.36 1.35 1.33 1.30 1.27 1.25 1.24 1.22 1.21 1.20 1.19 1.19 1.19 1.19 1.20 1.20 1.20
1.78 1.88 2.01 2.06 2.07 2.09 2.09 2.07 2.08 2.07 2.03 2.01 1.97 1.93 1.86 1.82 1.76 1.61 1.58 1.46 1.42 1.53 1.62 1.84 1.72 1.68 1.62 1.70 1.86 1.98 2.03 2.04 2.03 2.06 2.10 2.12 2.14 2.16 2.16 2.12 2.05 2.07 2.13 2.13 2.10 2.09 2.10 2.06 2.01 1.95 1.91 1.88 1.84 1.80 1.77 1.76 1.75 1.74 1.71 1.69 1.65 1.62 1.58 1.54 1.51 1.48 1.45 1.42 1.41 1.41 1.40 1.38 1.36 1.35 1.34 1.34 1.34 1.33 1.32 1.32 1.31 1.32 1.33 1.33 1.33
1.96 2.09 2.11 2.15 2.14 2.11 2.09 2.10 2.09 2.07 2.02 1.96 1.92 1.82 1.76 1.71 1.64 1.49 1.40 1.46 1.45 1.52 1.52 1.72 1.64 1.75 1.73 1.62 1.54 1.58 1.81 1.89 1.99 2.02 2.04 2.06 2.09 2.08 2.13 2.12 2.05 2.06 2.09 2.12 2.10 2.08 2.09 2.05 2.00 1.98 2.00 1.99 1.97 1.92 1.86 1.81 1.77 1.75 1.75 1.72 1.69 1.66 1.61 1.58 1.56 1.53 1.50 1.45 1.44 1.44 1.45 1.44 1.43 1.43 1.43 1.43 1.43 1.43 1.45 1.45 1.46 1.47 1.46 1.46 1.45
2.16 2.22 2.22 2.21 2.19 2.15 2.14 2.13 2.11 2.10 2.03 1.93 1.88 1.80 1.73 1.68 1.61 1.50 1.40 1.22 1.28 1.34 1.51 1.61 1.76 1.73 1.44 1.46 1.48 1.51 1.42 1.60 1.73 1.86 1.98 2.00 2.01 2.02 2.08 2.07 2.09 2.11 2.12 2.06 2.07 2.07 2.06 2.06 1.99 1.98 1.98 1.98 2.00 2.02 1.99 1.93 1.88 1.84 1.82 1.80 1.77 1.72 1.67 1.62 1.59 1.55 1.52 1.50 1.48 1.47 1.47 1.48 1.49 1.48 1.47 1.47 1.46 1.46 1.47 1.47 1.48 1.48 1.48 1.49 1.47
2.27 2.27 2.24 2.22 2.22 2.19 2.15 2.15 2.11 2.07 2.03 1.93 1.83 1.77 1.74 1.69 1.56 1.41 1.31 1.17 1.06 1.12 1.30 1.52 1.67 1.83 1.63 1.46 1.36 1.29 1.32 1.48 1.60 1.65 1.87 1.85 1.93 1.99 2.03 2.05 2.05 2.04 2.02 2.02 2.08 2.09 2.08 2.05 2.04 2.04 2.04 2.03 2.01 2.00 2.00 2.00 1.98 1.95 1.91 1.88 1.85 1.83 1.78 1.72 1.67 1.62 1.57 1.54 1.53 1.51 1.49 1.49 1.49 1.49 1.49 1.49 1.49 1.50 1.49 1.48 1.46 1.45 1.45 1.46 1.46
2.29 2.26 2.24 2.24 2.19 2.18 2.17 2.16 2.10 2.03 1.98 1.93 1.86 1.81 1.73 1.62 1.46 1.33 1.22 1.20 1.07 1.03 1.01 1.35 1.56 1.67 1.74 1.70 1.59 1.32 1.31 1.44 1.48 1.27 1.69 1.82 1.87 1.93 1.95 2.00 2.03 2.00 1.99 1.97 1.96 2.00 2.06 2.04 2.07 2.05 2.06 2.05 2.05 2.04 2.01 1.99 1.99 1.98 1.96 1.94 1.92 1.89 1.85 1.81 1.76 1.73 1.68 1.65 1.63 1.61 1.57 1.55 1.54 1.53 1.52 1.52 1.52 1.51 1.50 1.49 1.46 1.44 1.40 1.39 1.39
2.28 2.29 2.25 2.23 2.19 2.17 2.18 2.15 2.07 2.01 2.01 1.94 1.81 1.73 1.67 1.54 1.46 1.34 1.24 1.21 1.19 1.01 0.93 0.99 1.31 1.49 1.59 1.64 1.60 1.64 1.60 1.41 1.28 1.41 1.26 1.50 1.70 1.76 1.82 1.92 1.94 1.93 1.92 1.93 1.96 1.96 2.00 2.04 2.03 2.04 2.04 2.04 2.04 2.03 2.04 2.04 2.03 2.01 2.00 1.98 1.96 1.95 1.94 1.91 1.87 1.82 1.77 1.73 1.70 1.67 1.66 1.62 1.59 1.57 1.56 1.55 1.53 1.52 1.51 1.50 1.48 1.47 1.43 1.38 1.36
2.28 2.25 2.24 2.22 2.21 2.19 2.18 2.10 2.04 2.02 1.98 1.87 1.75 1.67 1.57 1.46 1.40 1.34 1.32 1.29 1.19 1.05 0.95 0.98 0.88 1.04 1.36 1.41 1.47 1.56 1.56 1.50 1.47 1.38 1.33 1.22 1.31 1.61 1.72 1.79 1.86 1.91 1.92 1.90 1.91 1.92 1.93 1.98 1.99 2.01 2.03 2.04 2.05 2.04 2.02 2.02 2.02 2.03 2.03 2.02 2.02 2.01 2.01 2.01 1.99 1.98 1.96 1.90 1.83 1.77 1.72 1.69 1.65 1.60 1.58 1.57 1.55 1.54 1.53 1.53 1.52 1.51 1.51 1.49 1.48
2.24 2.21 2.22 2.24 2.23 2.15 2.08 2.01 1.99 1.94 1.92 1.82 1.70 1.52 1.43 1.34 1.31 1.28 1.25 1.26 1.17 1.12 1.00 0.94 0.91 0.88 1.07 1.17 1.26 1.32 1.40 1.42 1.42 1.42 1.31 1.26 1.22 1.28 1.34 1.56 1.64 1.74 1.78 1.81 1.85 1.90 1.94 1.97 2.01 2.01 2.01 2.02 2.04 2.04 2.04 2.03 2.02 2.02 2.02 2.04 2.07 2.08 2.09 2.09 2.08 2.05 2.02 2.00 1.98 1.95 1.91 1.87 1.83 1.74 1.66 1.60 1.57 1.56 1.56 1.56 1.56 1.57 1.57 1.58 1.59
2.17 2.21 2.24 2.22 2.10 2.03 1.99 1.99 1.96 1.92 1.87 1.78 1.57 1.40 1.37 1.34 1.24 1.20 1.24 1.19 1.15 1.10 1.03 0.99 0.96 0.93 0.95 1.01 1.02 1.11 1.20 1.23 1.28 1.28 1.35 1.38 1.22 1.24 1.32 1.31 1.26 1.43 1.62 1.67 1.74 1.80 1.86 1.90 1.93 1.95 1.96 1.97 2.00 2.02 2.03 2.02 2.02 2.04 2.04 2.04 2.05 2.07 2.09 2.14 2.15 2.16 2.12 2.05 2.02 2.01 2.01 2.02 1.99 1.96 1.92 1.83 1.75 1.69 1.64 1.60 1.59 1.59 1.58 1.59 1.60
2.15 2.20 2.17 2.07 1.99 1.99 2.02 1.98 1.94 1.85 1.76 1.59 1.46 1.33 1.27 1.22 1.22 1.19 1.15 1.13 1.10 1.06 1.02 1.01 1.01 0.97 0.93 0.96 0.96 0.99 0.99 0.99 1.05 1.15 1.19 1.23 1.28 1.29 1.37 1.35 1.28 1.24 1.36 1.52 1.61 1.70 1.76 1.82 1.82 1.85 1.88 1.91 1.94 1.97 1.97 1.99 2.04 2.06 2.07 2.07 2.10 2.06 2.09 2.12 2.10 2.13 2.10 2.04 2.10 2.13 2.12 2.09 2.06 2.06 2.07 2.04 1.99 1.96 1.92 1.85 1.79 1.72 1.67 1.64 1.62
2.08 2.04 1.97 1.93 1.94 1.99 2.00 1.92 1.79 1.64 1.46 1.38 1.30 1.23 1.20 1.21 1.19 1.17 1.16 1.14 1.12 1.07 1.04 1.04 1.02 1.00 0.96 0.99 0.98 1.00 1.00 0.98 1.03 1.08 1.09 1.14 1.16 1.15 1.18 1.19 1.18 1.25 1.31 1.37 1.50 1.52 1.59 1.66 1.74 1.77 1.81 1.85 1.90 1.95 1.97 1.98 1.99 2.03 2.07 2.10 2.10 2.10 2.12 2.11 2.10 2.15 2.13 2.07 2.16 2.17 2.23 2.17 2.19 2.17 2.12 2.05 2.08 2.05 2.08 1.96 1.83 1.81 1.74 1.67 1.66
1.83 1.79 1.77 1.78 1.83 1.80 1.72 1.57 1.40 1.25 1.17 1.12 1.13 1.16 1.15 1.15 1.15 1.15 1.13 1.13 1.14 1.12 1.08 1.05 1.06 1.02 1.00 1.06 1.02 1.01 1.02 1.04 1.04 1.03 1.05 1.06 1.03 0.95 0.99 1.05 0.96 1.00 1.13 1.22 1.21 1.33 1.44 1.50 1.55 1.60 1.64 1.71 1.79 1.86 1.92 1.96 1.97 1.99 2.03 2.05 2.11 2.11 2.09 2.11 2.17 2.15 2.05 2.10 2.18 2.17 2.16 2.17 2.16 2.27 2.19 2.13 2.12 2.11 2.01 1.89 1.91 1.94 1.93 1.86 1.79
1.69 1.67 1.72 1.72 1.68 1.56 1.39 1.26 1.13 1.10 1.13 1.16 1.18 1.19 1.17 1.14 1.13 1.11 1.11 1.17 1.18 1.16 1.13 1.14 1.16 1.16 1.16 1.09 1.07 1.05 1.08 1.11 1.07 1.06 1.02 0.98 0.94 0.90 0.89 0.92 0.91 0.87 0.98 1.04 1.14 1.07 1.18 1.32 1.40 1.46 1.53 1.60 1.65 1.71 1.76 1.81 1.86 1.91 1.99 2.01 2.02 2.05 2.03 2.05 2.06 2.06 2.07 2.03 2.05 2.04 2.07 2.14 2.19 2.18 2.19 2.19 2.21 2.10 2.05 2.05 2.05 2.04 2.01 1.99 1.99
1.57 1.50 1.45 1.39 1.36 1.30 1.19 1.18 1.18 1.21 1.23 1.21 1.19 1.20 1.20 1.17 1.16 1.14 1.15 1.15 1.16 1.17 1.16 1.18 1.18 1.19 1.21 1.20 1.18 1.16 1.14 1.16 1.15 1.12 1.11 1.07 1.02 0.98 0.92 0.81 0.82 0.87 0.84 0.90 0.92 0.92 0.95 1.07 1.18 1.24 1.32 1.39 1.44 1.47 1.51 1.57 1.62 1.72 1.80 1.93 1.87 1.90 1.97 2.00 2.08 2.06 2.02 1.99 2.01 2.01 2.02 2.10 2.13 2.15 2.18 2.10 2.15 2.02 2.02 2.07 2.06 2.01 2.00 1.99 2.01
1.33 1.30 1.32 1.34 1.28 1.23 1.30 1.31 1.32 1.30 1.29 1.30 1.30 1.28 1.28 1.23 1.20 1.19 1.14 1.19 1.15 1.16 1.20 1.23 1.23 1.24 1.22 1.21 1.18 1.19 1.24 1.22 1.21 1.18 1.16 1.15 1.12 1.09 1.03 0.94 0.82 0.73 0.82 0.79 0.83 0.84 0.95 0.92 1.04 1.14 1.21 1.24 1.28 1.32 1.36 1.39 1.43 1.46 1.57 1.73 1.72 1.74 1.84 1.87 1.84 1.84 1.94 2.03 2.00 1.98 2.01 2.04 2.02 2.01 2.06 2.09 2.08 2.03 2.05 2.05 2.04 2.04 2.05 2.04 2.02
1.31 1.31 1.29 1.34 1.37 1.35 1.34 1.37 1.37 1.39 1.40 1.40 1.40 1.39 1.38 1.36 1.35 1.32 1.22 1.20 1.18 1.18 1.22 1.22 1.24 1.25 1.24 1.24 1.21 1.21 1.25 1.28 1.24 1.23 1.22 1.22 1.20 1.17 1.13 1.02 0.96 0.85 0.78 0.77 0.82 0.84 0.92 1.01 0.92 1.06 1.15 1.19 1.14 1.19 1.22 1.27 1.32 1.39 1.46 1.56 1.58 1.58 1.60 1.52 1.51 1.62 1.71 1.78 1.84 1.90 1.95 2.00 2.04 2.06 2.03 1.99 1.98 1.96 1.96 1.97 2.01 2.04 2.07 2.08 2.05
1.30 1.26 1.30 1.31 1.32 1.36 1.37 1.38 1.44 1.46 1.48 1.50 1.51 1.50 1.48 1.45 1.44 1.43 1.39 1.29 1.18 1.17 1.18 1.20 1.20 1.23 1.23 1.22 1.22 1.23 1.27 1.26 1.25 1.25 1.23 1.20 1.17 1.16 1.13 1.13 1.09 0.96 0.91 0.82 0.84 0.96 0.97 1.07 1.12 1.10 1.19 1.15 1.16 1.13 1.14 1.15 1.20 1.23 1.27 1.31 1.36 1.39 1.36 1.33 1.31 1.32 1.39 1.52 1.60 1.66 1.69 1.81 1.94 2.05 2.08 2.03 1.90 1.95 2.02 2.04 2.03 2.03 2.04 2.06 2.08
1.32 1.34 1.35 1.39 1.41 1.44 1.48 1.50 1.52 1.53 1.56 1.56 1.56 1.52 1.48 1.46 1.51 1.51 1.47 1.33 1.18 1.10 1.12 1.16 1.20 1.17 1.15 1.13 1.18 1.18 1.20 1.20 1.20 1.20 1.21 1.20 1.20 1.19 1.16 1.15 1.10 1.04 0.97 0.95 0.84 0.99 1.09 1.00 1.14 1.24 1.23 1.23 1.21 1.19 1.22 1.22 1.24 1.25 1.22 1.22 1.26 1.24 1.24 1.24 1.26 1.26 1.26 1.30 1.35 1.41 1.45 1.54 1.67 1.80 1.87 1.99 2.02 1.99 1.92 1.88 1.92 1.97 1.99 1.97 1.98
1.38 1.41 1.45 1.47 1.50 1.50 1.53 1.54 1.56 1.57 1.59 1.62 1.60 1.56 1.53 1.57 1.57 1.53 1.44 1.29 1.18 1.14 1.12 1.12 1.13 1.11 1.08 1.05 1.07 1.08 1.11 1.11 1.12 1.14 1.14 1.16 1.17 1.16 1.15 1.12 1.11 1.12 1.09 1.01 0.93 0.92 1.12 1.13 1.18 1.24 1.28 1.27 1.29 1.24 1.24 1.28 1.33 1.33 1.31 1.29 1.29 1.29 1.29 1.28 1.27 1.26 1.25 1.24 1.26 1.30 1.34 1.39 1.46 1.53 1.58 1.62 1.67 1.72 1.77 1.80 1.78 1.84 1.90 1.93 1.95
1.43 1.44 1.46 1.49 1.55 1.57 1.56 1.60 1.64 1.66 1.67 1.67 1.69 1.68 1.67 1.61 1.53 1.34 1.09 0.96 0.97 1.07 1.09 1.07 1.07 1.04 1.00 0.98 0.98 1.00 1.02 0.99 0.99 1.00 1.00 1.01 1.02 1.02 1.02 1.02 1.03 1.07 1.06 1.02 0.95 0.94 1.05 1.18 1.18 1.18 1.25 1.27 1.23 1.28 1.22 1.23 1.25 1.29 1.32 1.33 1.33 1.30 1.29 1.29 1.29 1.29 1.28 1.27 1.28 1.30 1.33 1.36 1.40 1.42 1.43 1.42 1.44 1.48 1.53 1.60 1.68 1.71 1.76 1.82 1.87
1.56 1.56 1.59 1.68 1.73 1.71 1.69 1.69 1.68 1.68 1.68 1.68 1.68 1.63 1.50 1.33 1.13 0.97 0.84 0.77 0.66 0.70 0.84 0.88 0.91 0.92 0.91 0.88 0.88 0.89 0.91 0.89 0.90 0.91 0.93 0.93 0.93 0.92 0.91 0.90 0.90 0.93 0.99 0.92 0.90 0.88 0.85 1.01 1.06 1.16 1.17 1.22 1.13 1.24 1.20 1.17 1.19 1.23 1.22 1.24 1.28 1.30 1.28 1.30 1.30 1.29 1.28 1.27 1.27 1.30 1.34 1.36 1.36 1.36 1.36 1.36 1.35 1.34 1.36 1.42 1.47 1.55 1.62 1.70 1.78
1.68 1.72 1.75 1.74 1.72 1.71 1.67 1.63 1.61 1.60 1.59 1.57 1.54 1.44 1.29 1.11 0.95 0.86 0.84 0.78 0.66 0.53 0.58 0.69 0.76 0.80 0.78 0.77 0.76 0.76 0.76 0.73 0.74 0.77 0.82 0.82 0.84 0.84 0.85 0.87 0.84 0.86 0.89 0.89 0.84 0.78 0.78 0.80 0.92 0.93 0.99 1.06 1.07 1.09 1.15 1.16 1.17 1.18 1.16 1.17 1.19 1.22 1.26 1.27 1.26 1.27 1.27 1.26 1.24 1.23 1.27 1.31 1.32 1.32 1.33 1.33 1.33 1.32 1.30 1.29 1.30 1.31 1.39 1.51 1.63
1.74 1.78 1.73 1.69 1.65 1.61 1.56 1.54 1.54 1.55 1.52 1.43 1.35 1.24 1.10 0.97 0.89 0.87 0.86 0.80 0.67 0.54 0.50 0.55 0.65 0.68 0.68 0.70 0.70 0.73 0.74 0.70 0.70 0.72 0.75 0.76 0.75 0.75 0.75 0.78 0.79 0.79 0.82 0.83 0.84 0.79 0.77 0.72 0.78 0.81 0.87 0.88 0.95 1.02 1.04 1.05 1.04 1.04 1.06 1.09 1.15 1.16 1.19 1.24 1.25 1.24 1.25 1.25 1.23 1.21 1.22 1.24 1.25 1.28 1.30 1.31 1.32 1.31 1.29 1.27 1.28 1.30 1.33 1.38 1.42
1.67 1.65 1.64 1.63 1.58 1.56 1.53 1.50 1.49 1.46 1.38 1.27 1.18 1.08 1.00 0.95 0.92 0.90 0.85 0.76 0.65 0.54 0.51 0.53 0.60 0.65 0.67 0.68 0.70 0.74 0.74 0.69 0.70 0.70 0.72 0.72 0.75 0.74 0.71 0.72 0.70 0.71 0.73 0.74 0.74 0.76 0.73 0.68 0.71 0.77 0.81 0.82 0.86 0.89 0.92 0.89 0.90 0.92 0.95 0.97 1.02 1.08 1.13 1.19 1.21 1.23 1.23 1.24 1.24 1.22 1.22 1.22 1.21 1.20 1.21 1.25 1.27 1.30 1.30 1.28 1.29 1.31 1.33 1.38 1.39
1.57 1.60 1.59 1.58 1.57 1.54 1.53 1.48 1.41 1.33 1.20 1.12 1.04 0.98 0.95 0.94 0.92 0.87 0.76 0.66 0.58 0.50 0.49 0.53 0.57 0.64 0.67 0.69 0.71 0.73 0.71 0.66 0.64 0.67 0.72 0.74 0.75 0.70 0.66 0.63 0.59 0.58 0.59 0.62 0.67 0.68 0.68 0.67 0.67 0.67 0.72 0.72 0.73 0.76 0.81 0.84 0.81 0.77 0.77 0.81 0.88 0.95 0.98 1.01 1.07 1.14 1.19 1.20 1.21 1.23 1.23 1.23 1.25 1.26 1.23 1.22 1.23 1.25 1.29 1.30 1.30 1.32 1.33 1.32 1.36
1.53 1.54 1.56 1.53 1.53 1.50 1.46 1.42 1.29 1.15 1.06 1.03 0.98 0.95 0.94 0.92 0.84 0.73 0.62 0.57 0.49 0.45 0.49 0.55 0.59 0.65 0.68 0.70 0.71 0.71 0.69 0.67 0.65 0.65 0.69 0.71 0.72 0.72 0.72 0.70 0.75 0.77 0.76 0.75 0.74 0.70 0.68 0.66 0.65 0.66 0.65 0.70 0.71 0.65 0.73 0.80 0.79 0.77 0.70 0.68 0.67 0.76 0.83 0.87 0.85 0.93 1.03 1.06 1.14 1.22 1.23 1.24 1.29 1.31 1.30 1.25 1.23 1.23 1.24 1.27 1.28 1.28 1.28 1.28 1.30
1.46 1.49 1.52 1.50 1.47 1.44 1.35 1.15 1.05 1.02 0.98 0.93 0.92 0.93 0.89 0.80 0.73 0.65 0.60 0.52 0.46 0.47 0.53 0.59 0.62 0.65 0.68 0.70 0.72 0.73 0.73 0.72 0.74 0.78 0.80 0.78 0.81 0.78 0.82 0.87 0.90 0.89 0.88 0.89 0.90 0.90 0.88 0.87 0.86 0.83 0.84 0.80 0.78 0.82 0.83 0.81 0.76 0.76 0.81 0.78 0.70 0.71 0.75 0.81 0.83 0.78 0.80 0.84 0.88 1.02 1.14 1.19 1.22 1.27 1.29 1.29 1.28 1.25 1.24 1.23 1.22 1.23 1.23 1.24 1.27
1.53 1.56 1.58 1.50 1.38 1.27 1.10 1.02 0.99 0.98 0.93 0.90 0.91 0.88 0.80 0.72 0.67 0.61 0.54 0.45 0.44 0.47 0.50 0.53 0.58 0.61 0.61 0.63 0.64 0.69 0.73 0.76 0.79 0.81 0.83 0.84 0.84 0.84 0.92 0.97 0.96 0.94 0.93 0.93 0.92 0.91 0.91 0.91 0.90 0.95 0.94 0.92 0.93 0.92 0.89 0.87 0.83 0.81 0.89 0.91 0.84 0.84 0.85 0.84 0.86 0.91 0.90 0.84 0.85 0.87 0.91 0.97 1.00 1.08 1.16 1.19 1.25 1.28 1.27 1.24 1.21 1.21 1.23 1.27 1.29
1.54 1.58 1.54 1.39 1.26 1.11 1.01 0.98 0.97 0.96 0.98 0.99 0.96 0.91 0.86 0.72 0.62 0.56 0.43 0.33 0.35 0.41 0.44 0.45 0.48 0.51 0.55 0.58 0.61 0.63 0.65 0.65 0.69 0.74 0.81 0.90 0.98 1.02 1.06 1.07 1.05 1.02 0.99 0.95 0.93 0.92 0.91 0.88 0.90 0.94 0.93 0.93 0.96 0.99 0.97 0.98 1.02 1.03 0.99 0.98 0.91 0.93 0.92 0.87 0.90 0.95 1.01 0.98 0.93 0.86 0.88 0.93 0.90 0.93 1.00 1.02 1.11 1.20 1.22 1.22 1.20 1.18 1.19 1.22 1.24
1.55 1.50 1.38 1.19 1.08 1.04 1.04 0.99 0.96 0.97 0.95 0.91 0.85 0.81 0.79 0.74 0.62 0.49 0.34 0.25 0.25 0.31 0.37 0.39 0.41 0.45 0.48 0.52 0.55 0.57 0.59 0.62 0.71 0.78 0.85 0.94 1.01 1.07 1.12 1.14 1.15 1.11 1.05 1.01 0.99 1.00 0.97 0.95 0.98 1.00 0.99 0.98 1.02 1.07 1.06 1.06 1.08 1.06 1.04 1.04 1.02 1.01 0.95 0.88 0.81 0.95 1.13 1.07 0.99 0.93 0.92 1.00 0.97 0.88 0.90 0.92 0.99 1.07 1.13 1.15 1.17 1.16 1.16 1.18 1.19
1.43 1.29 1.15 1.07 1.07 1.07 1.03 0.97 0.96 0.95 0.92 0.89 0.84 0.78 0.75 0.68 0.57 0.44 0.35 0.27 0.26 0.27 0.30 0.34 0.38 0.41 0.42 0.44 0.45 0.50 0.55 0.64 0.73 0.76 0.84 0.93 0.99 1.03 1.09 1.15 1.18 1.19 1.19 1.13 1.07 1.05 1.06 1.04 1.02 1.02 1.03 1.02 1.05 1.09 1.09 1.09 1.08 1.11 1.13 1.13 1.10 1.05 1.00 0.96 0.95 0.91 1.11 1.18 1.05 0.97 0.92 1.01 1.01 0.95 0.91 0.90 0.92 0.99 1.07 1.11 1.13 1.13 1.12 1.15 1.21
1.23 1.10 1.03 1.01 1.01 0.99 0.94 0.92 0.92 0.92 0.89 0.85 0.79 0.73 0.67 0.60 0.51 0.43 0.40 0.36 0.32 0.33 0.34 0.37 0.40 0.42 0.44 0.47 0.51 0.60 0.72 0.83 0.90 0.95 0.98 1.00 1.03 1.05 1.11 1.18 1.23 1.25 1.24 1.25 1.26 1.23 1.22 1.16 1.10 1.06 1.07 1.08 1.07 1.10 1.16 1.15 1.19 1.08 1.08 1.06 1.06 1.05 1.04 1.00 1.00 1.02 1.09 1.20 1.10 1.00 0.94 1.01 1.04 0.97 0.93 0.95 0.94 0.95 1.01 1.07 1.09 1.10 1.10 1.11 1.18
1.07 1.00 1.02 0.98 0.96 0.92 0.92 0.93 0.91 0.89 0.84 0.79 0.71 0.66 0.60 0.53 0.48 0.48 0.47 0.46 0.44 0.43 0.42 0.39 0.35 0.37 0.43 0.47 0.50 0.55 0.68 0.79 0.87 0.92 0.97 0.99 1.00 1.02 1.06 1.13 1.16 1.18 1.21 1.25 1.25 1.25 1.25 1.21 1.16 1.08 1.12 1.15 1.09 1.13 1.18 1.19 1.11 1.06 1.06 1.03 1.06 1.02 0.99 0.97 1.02 1.04 1.11 1.18 1.08 1.03 0.96 1.01 1.09 1.04 0.99 1.02 1.02 0.98 0.99 1.02 1.05 1.07 1.08 1.09 1.15
0.99 0.96 0.95 0.95 0.92 0.93 0.92 0.90 0.84 0.78 0.75 0.71 0.66 0.58 0.54 0.52 0.53 0.54 0.53 0.50 0.48 0.46 0.45 0.41 0.35 0.35 0.40 0.45 0.49 0.53 0.59 0.64 0.71 0.77 0.79 0.81 0.85 0.91 0.95 1.01 1.06 1.13 1.21 1.24 1.24 1.25 1.24 1.24 1.21 1.18 1.16 1.16 1.16 1.17 1.18 1.18 1.15 1.12 1.12 1.08 1.08 1.07 1.06 1.08 1.06 1.08 1.08 1.17 1.16 1.10 0.92 1.01 1.12 1.06 1.06 1.11 1.12 1.06 1.04 1.03 1.04 1.06 1.08 1.10 1.12
1.03 0.97 0.93 0.92 0.88 0.87 0.85 0.80 0.75 0.70 0.71 0.66 0.56 0.54 0.56 0.58 0.60 0.58 0.54 0.50 0.47 0.45 0.42 0.37 0.34 0.37 0.41 0.44 0.46 0.49 0.54 0.59 0.64 0.66 0.68 0.71 0.69 0.67 0.71 0.80 0.93 1.11 1.21 1.29 1.29 1.29 1.30 1.30 1.28 1.23 1.20 1.20 1.22 1.21 1.21 1.20 1.18 1.17 1.17 1.17 1.15 1.10 1.04 0.97 0.93 1.00 1.01 1.13 1.18 1.11 1.02 1.02 1.14 1.10 1.12 1.21 1.22 1.15 1.14 1.11 1.09 1.10 1.11 1.12 1.13
0.91 0.88 0.86 0.84 0.82 0.79 0.76 0.74 0.70 0.66 0.59 0.56 0.57 0.60 0.59 0.63 0.62 0.56 0.52 0.48 0.44 0.40 0.36 0.32 0.35 0.38 0.43 0.45 0.49 0.49 0.52 0.55 0.60 0.61 0.61 0.63 0.59 0.55 0.54 0.60 0.80 0.97 1.09 1.23 1.30 1.31 1.32 1.31 1.29 1.28 1.27 1.26 1.26 1.26 1.25 1.24 1.23 1.23 1.19 1.13 1.09 1.11 1.03 0.94 0.95 0.98 1.00 1.12 1.20 1.19 1.10 1.02 1.13 1.14 1.12 1.22 1.25 1.22 1.21 1.23 1.25 1.24 1.21 1.17 1.14
0.86 0.85 0.84 0.81 0.78 0.74 0.70 0.66 0.62 0.53 0.54 0.58 0.64 0.62 0.62 0.62 0.60 0.52 0.46 0.41 0.38 0.35 0.31 0.33 0.37 0.40 0.43 0.47 0.51 0.54 0.56 0.59 0.63 0.66 0.69 0.70 0.64 0.61 0.61 0.62 0.65 0.73 0.87 1.05 1.16 1.25 1.33 1.34 1.33 1.31 1.30 1.29 1.29 1.30 1.31 1.32 1.32 1.33 1.26 1.14 1.20 1.21 1.12 1.09 1.01 1.05 1.12 1.19 1.24 1.31 1.15 1.10 1.16 1.20 1.15 1.20 1.23 1.25 1.26 1.29 1.32 1.33 1.32 1.27 1.23
0.86 0.83 0.78 0.71 0.68 0.64 0.59 0.57 0.63 0.58 0.56 0.64 0.67 0.64 0.60 0.57 0.53 0.45 0.39 0.37 0.34 0.32 0.31 0.32 0.40 0.47 0.53 0.59 0.62 0.67 0.69 0.71 0.72 0.75 0.76 0.77 0.72 0.71 0.71 0.69 0.68 0.68 0.75 0.82 0.88 0.96 1.08 1.18 1.25 1.28 1.27 1.30 1.32 1.33 1.34 1.36 1.37 1.38 1.37 1.32 1.32 1.26 1.17 1.15 1.14 1.13 1.07 1.14 1.29 1.40 1.18 1.19 1.20 1.24 1.20 1.12 1.07 1.20 1.29 1.34 1.35 1.35 1.35 1.34 1.33
Wind_Speed
6 6 6 6 7 7 8 9 10 11 12 13 13 13 13 13 12 12 11 11 12 12 10 10 10 9 8 8 8 8 7 7 8 8 9 10 11 11 11 12 13 14 15 15 16 16 15 14 14 13 13 13 13 14 14 14 14 14 14 13 14 14 14 14 13 13 13 13 13 13 12 12 12 11 10 10 9 9 8 7 7 6 6 5 5
7 7 7 7 8 8 9 10 11 12 13 13 13 13 13 13 12 11 11 12 12 11 10 10 10 9 9 9 9 9 8 8 8 9 9 10 11 11 12 13 13 14 15 16 17 17 16 15 15 14 14 14 14 14 14 14 14 14 14 14 14 14 14 14 14 14 13 13 13 13 13 13 12 12 11 11 10 10 9 8 8 7 7 6 6
7 8 8 8 9 10 10 11 12 13 14 14 14 13 13 12 11 11 11 11 11 11 10 10 10 10 10 9 9 9 9 9 9 9 10 10 11 11 12 13 14 14 15 16 17 17 17 16 16 15 15 15 15 15 15 15 15 15 15 15 15 14 15 15 15 15 14 14 14 14 13 13 13 13 12 12 11 11 10 10 9 9 8 8 7
8 8 8 9 10 11 11 12 13 13 14 14 13 13 13 12 11 11 11 11 10 10 9 9 10 10 10 10 10 10 10 10 9 9 10 11 11 12 12 13 14 14 15 16 17 18 18 17 17 17 16 16 16 16 16 15 15 15 15 15 15 15 15 15 16 16 15 15 15 15 14 14 14 13 13 12 12 12 11 11 10 10 9 9 8
8 8 9 10 10 11 11 12 13 13 14 14 13 13 12 12 11 11 10 9 9 9 9 9 9 10 10 10 10 10 10 11 10 10 10 11 12 12 12 13 14 15 15 16 17 18 18 18 18 18 17 17 17 16 16 16 16 16 16 16 16 16 16 16 16 16 16 16 16 16 15 15 14 14 14 13 13 12 12 12 11 11 10 10 9
9 9 9 10 11 11 12 12 13 14 14 13 12 12 12 11 11 10 10 9 9 9 9 9 9 10 10 11 11 11 11 11 11 11 11 11 12 12 13 13 14 15 16 16 17 18 19 19 19 19 18 18 18 17 17 17 17 17 16 16 17 17 17 17 17 17 17 17 17 17 16 16 15 15 15 14 14 13 13 12 12 12 11 11 11
9 9 10 11 12 12 12 13 14 13 13 12 12 12 12 11 10 9 9 9 9 9 9 9 9 10 10 11 11 11 11 11 11 11 12 12 12 13 13 14 14 15 16 16 17 18 19 20 20 20 19 19 19 19 18 18 18 18 18 17 17 17 17 18 18 18 18 18 18 18 17 17 17 16 16 15 15 14 14 13 13 13 12 12 12
10 11 11 12 12 13 13 13 13 13 12 12 12 12 11 11 10 9 9 9 9 9 9 9 9 10 10 11 11 11 11 11 11 11 12 12 12 12 13 14 14 15 15 16 17 18 19 20 20 21 20 20 20 20 19 19 19 19 19 18 18 18 18 18 18 19 19 19 19 19 18 18 18 17 17 16 16 15 15 15 14 14 14 13 13
11 11 12 12 13 13 13 13 13 12 12 12 11 11 11 10 10 9 9 9 9 9 9 9 9 9 9 9 10 11 11 11 11 11 11 12 13 13 13 14 14 14 15 15 16 18 19 20 20 21 21 21 21 21 20 20 20 20 20 20 19 19 19 19 19 19 19 19 20 19 19 19 18 18 17 17 17 16 16 16 15 15 15 15 15
12 12 12 13 13 14 14 13 12 12 12 11 11 11 10 9 9 9 9 9 9 9 9 9 9 9 8 7 8 9 10 10 10 11 11 12 13 13 13 13 14 14 14 15 16 17 18 19 20 21 22 22 22 22 21 21 21 21 21 21 20 20 20 20 20 20 20 20 20 20 20 20 19 19 19 18 18 18 17 17 17 17 16 16 16
13 13 13 13 14 14 14 13 12 11 11 11 10 10 9 9 9 9 9 8 8 8 8 8 8 8 7 6 6 7 8 8 9 10 11 11 12 13 13 13 13 14 14 14 15 16 17 18 19 20 21 22 22 22 22 22 22 22 22 22 22 22 21 21 21 21 21 21 21 21 21 21 20 20 20 20 19 19 19 18 18 18 18 17 17
14 14 14 14 14 14 13 13 12 11 10 10 9 8 8 8 8 8 8 8 7 8 7 7 7 7 6 4 4 5 6 7 8 9 10 10 11 12 13 13 14 13 13 13 14 15 16 17 19 20 20 21 22 22 23 23 23 23 23 23 23 23 23 22 22 22 22 22 22 22 22 22 21 21 21 21 20 20 20 19 19 19 18 18 18
14 14 14 14 14 13 13 12 12 11 10 9 8 7 7 7 7 8 7 7 7 7 7 7 7 6 4 2 2 3 5 5 6 8 9 9 10 12 12 13 13 13 13 13 14 14 15 16 17 19 20 21 21 22 23 24 24 24 24 24 24 24 24 24 24 23 23 23 23 23 23 23 22 22 22 22 21 21 21 20 20 19 19 19 18
14 14 14 14 14 13 13 12 11 10 9 8 7 7 7 7 7 7 7 7 6 6 6 6 6 5 4 2 1 1 3 4 5 7 8 8 10 10 11 12 12 12 12 13 13 14 14 15 16 17 19 20 21 22 22 23 24 24 24 25 25 25 25 25 25 25 25 24 24 24 24 24 23 23 23 23 22 22 22 21 20 20 20 19 19
14 14 14 14 13 13 12 12 11 9 8 7 6 6 6 7 7 7 7 6 5 6 6 5 4 4 4 3 2 0 1 2 4 5 6 7 8 9 10 11 11 11 12 12 12 13 14 14 15 16 17 18 20 21 22 22 23 24 25 25 25 26 26 26 26 26 26 26 26 26 25 25 25 24 24 24 24 23 23 22 22 21 21 20 20
14 13 13 13 13 13 12 11 10 8 7 6 6 6 6 7 7 7 6 5 5 5 5 4 4 3 3 2 2 1 0 1 2 3 5 6 7 8 9 10 10 11 11 12 12 13 14 14 15 16 17 17 18 19 20 21 22 23 25 25 26 26 27 27 27 27 27 27 27 27 27 27 26 26 26 25 25 25 24 24 23 23 22 22 21
12 12 13 13 12 12 11 10 9 7 6 6 6 6 6 6 6 6 5 5 5 5 4 4 3 3 3 2 2 1 1 1 1 2 3 5 6 7 8 9 10 11 11 12 12 13 14 14 15 16 17 17 18 18 19 20 21 22 23 24 25 26 27 28 28 28 28 29 29 29 28 28 28 28 27 27 27 26 26 26 25 25 24 24 24
11 11 12 12 12 12 10 9 7 7 6 6 6 6 6 6 6 5 5 4 4 5 4 3 3 3 3 3 3 3 3 3 2 3 3 4 5 7 8 9 10 10 11 12 12 13 14 14 15 16 17 18 18 19 19 20 20 21 22 23 24 25 26 27 28 29 29 29 30 30 30 30 30 30 29 29 29 28 28 28 27 27 26 26 26
11 11 11 11 11 10 8 7 6 6 6 6 7 7 6 6 5 5 4 4 4 5 5 4 3 4 4 4 4 4 4 4 4 4 4 4 5 6 7 8 9 10 11 12 13 14 14 15 15 16 17 18 19 19 20 20 21 21 22 22 23 24 25 26 27 28 29 30 30 30 31 31 31 31 31 31 30 30 30 30 29 29 29 28 28
10 10 9 9 8 7 6 6 5 5 5 6 6 6 6 6 5 5 4 4 5 5 5 5 5 5 5 5 6 6 5 6 6 6 6 6 6 6 7 8 9 10 11 12 13 14 15 15 16 17 17 18 19 20 20 21 21 22 22 23 24 24 25 25 26 27 28 29 29 30 30 31 31 32 32 32 32 32 31 31 31 31 30 30 30
9 8 8 7 6 5 5 5 5 5 5 5 5 6 6 6 6 6 5 5 5 6 6 6 6 6 7 7 7 7 7 7 8 8 8 8 8 7 7 8 9 10 11 12 13 14 15 16 17 17 18 19 20 20 21 22 22 23 23 24 25 25 26 26 26 27 27 27 28 29 29 30 31 31 32 32 32 32 32 32 32 32 32 32 31
7 6 6 5 5 4 4 4 4 4 4 5 5 6 6 5 6 6 6 6 6 7 8 8 8 8 8 8 8 9 9 9 9 10 10 10 10 10 10 10 10 11 12 13 13 14 15 16 17 18 18 19 20 21 22 22 23 24 25 25 26 27 27 27 27 27 27 27 28 28 29 30 30 31 31 32 32 33 33 33 33 33 33 33 33
5 5 4 4 4 4 4 4 4 4 5 6 6 7 6 5 6 6 6 7 8 8 8 8 8 9 9 9 10 10 10 10 10 11 11 11 12 12 12 12 13 13 13 13 13 14 15 16 17 18 19 20 20 21 22 22 23 24 25 26 27 27 27 27 27 27 27 28 29 30 30 30 30 31 31 31 31 32 32 32 32 32 33 33 33
3 3 3 3 3 3 3 4 4 5 6 6 6 6 6 6 6 7 8 9 9 9 9 9 9 10 10 10 10 11 11 11 11 12 12 13 13 14 14 14 14 15 15 15 15 15 15 16 17 18 19 20 21 22 22 23 24 25 25 26 26 26 26 26 27 28 28 30 31 32 31 31 31 31 30 31 31 30 30 30 30 31 32 32 33
3 2 2 2 2 2 3 4 5 5 6 6 6 6 6 6 7 8 9 10 10 10 10 11 11 11 12 12 12 12 12 13 13 13 14 14 15 15 16 16 17 17 17 17 17 18 18 18 18 19 19 20 21 21 22 23 24 24 25 26 26 25 25 25 25 26 27 29 31 31 31 32 32 31 30 31 31 30 29 30 30 31 32 32 32
2 2 2 2 3 3 4 4 4 4 5 5 6 6 7 8 9 9 10 11 11 11 12 12 13 13 13 13 14 14 14 14 14 14 15 16 17 17 18 18 19 19 19 19 19 20 20 21 21 21 21 21 21 21 22 22 23 24 25 25 25 25 25 25 25 24 25 26 27 28 30 31 31 30 30 31 30 29 29 30 31 32 32 32 32
2 1 2 3 3 3 3 3 4 4 5 5 6 6 8 9 10 10 11 12 12 13 13 14 14 14 15 15 15 15 15 15 15 16 17 18 18 19 20 20 20 20 21 21 21 22 22 22 23 23 23 23 23 23 23 23 24 24 25 25 25 26 26 26 25 25 25 26 26 27 28 29 29 29 30 30 28 27 28 30 30 31 32 32 32
2 1 1 2 2 3 3 3 4 5 6 6 7 8 9 10 11 11 12 12 13 14 14 15 15 15 16 16 16 17 17 16 17 17 17 18 19 20 20 21 22 22 22 22 22 23 24 24 24 24 24 24 25 25 25 26 26 26 26 26 26 26 26 26 26 26 26 27 27 27 28 28 29 29 28 28 26 26 27 28 29 30 30 31 31
2 1 1 2 3 3 4 4 5 6 7 8 9 10 10 11 12 12 13 14 14 15 15 16 16 16 17 17 17 18 18 18 17 18 18 18 19 19 20 21 22 22 22 23 23 24 24 25 25 26 26 26 26 27 27 28 28 28 27 27 27 27 27 27 27 27 26 27 27 28 29 29 29 30 29 28 27 27 27 28 28 29 29 30 30
1 1 1 2 3 4 4 5 6 7 8 9 10 11 12 12 13 13 14 15 15 15 16 16 17 17 17 17 17 18 18 18 18 18 18 19 19 19 20 20 20 21 21 23 23 23 24 24 25 25 26 26 27 27 27 27 28 28 28 28 28 28 28 28 28 28 28 28 28 28 29 29 29 30 30 29 28 28 29 29 29 29 29 29 30
0 1 1 2 3 4 5 6 7 8 9 10 11 12 13 13 14 14 15 15 15 16 16 16 16 16 17 17 17 18 18 19 19 20 20 20 20 20 20 20 20 20 21 21 22 23 23 23 24 25 25 26 26 26 26 26 27 27 27 28 28 28 29 29 29 29 29 29 29 29 29 30 30 30 30 30 30 30 30 30 30 30 30 30 30
1 2 3 4 5 6 7 8 9 9 10 11 12 12 13 13 14 15 16 16 16 16 16 16 16 16 16 17 17 17 18 18 19 20 20 20 20 20 20 21 21 21 21 21 21 23 23 23 24 25 25 25 26 26 26 27 27 27 28 28 29 30 30 30 30 30 30 30 31 31 31 31 31 31 31 31 31 31 31 31 31 31 31 31 31
3 4 4 5 6 7 8 9 9 10 11 11 12 12 13 13 14 15 16 17 17 17 16 16 16 16 17 17 17 18 18 19 19 20 20 20 21 21 21 21 21 21 21 21 22 23 23 23 24 25 25 26 26 26 26 27 27 28 28 29 30 30 31 31 31 31 31 31 31 32 32 32 32 32 32 32 32 32 32 32 32 32 33 33 32
4 4 5 6 7 8 9 9 10 10 11 12 12 13 13 14 15 16 17 17 17 17 17 17 17 17 18 18 18 19 19 19 20 20 20 21 21 21 22 22 22 22 22 22 22 23 23 24 25 25 26 26 26 26 26 27 27 28 28 29 30 30 31 31 32 32 32 32 32 32 32 33 33 33 33 33 33 33 33 33 33 33 33 34 33
5 5 6 7 8 9 9 10 10 11 12 12 12 13 13 14 16 17 18 18 18 18 18 18 19 19 19 19 19 19 19 20 20 20 20 21 21 22 22 23 23 23 23 23 23 24 24 25 25 26 26 27 27 28 28 28 28 28 28 29 30 30 31 31 31 31 32 32 33 33 32 32 33 33 33 33 33 33 33 33 33 34 34 34 34
5 6 7 8 9 9 9 10 11 12 12 12 13 13 14 15 16 17 18 18 18 18 19 19 19 19 19 18 19 19 19 19 20 20 20 21 21 22 23 23 24 24 25 25 25 25 25 26 26 26 27 28 28 29 29 29 29 29 30 30 30 30 30 30 30 31 31 31 32 32 32 32 33 33 33 33 33 33 33 33 33 34 34 34 34
6 7 8 8 9 10 10 11 11 12 12 13 13 14 15 16 16 17 18 18 19 19 19 18 18 18 18 18 18 19 19 19 20 20 20 21 22 22 23 24 25 25 26 26 26 26 26 27 27 27 27 28 28 29 30 30 30 31 31 31 31 30 30 30 31 31 31 31 31 31 31 32 32 32 33 32 32 32 32 32 33 33 33 33 33
7 8 8 9 10 10 11 11 12 12 13 13 14 14 15 16 17 18 18 19 19 19 18 18 18 18 18 18 19 19 19 20 20 20 21 22 22 23 24 25 25 26 26 26 27 27 27 27 27 28 28 28 28 29 29 30 30 31 31 31 31 32 32 32 31 31 31 31 31 31 31 31 31 31 31 31 31 31 31 31 32 33 33 33 33
8 8 9 10 10 11 11 12 12 13 13 14 14 14 15 16 17 18 18 19 19 18 18 18 17 17 18 19 19 20 20 20 21 22 22 23 23 24 25 26 26 27 27 27 27 27 28 28 28 28 29 29 29 29 29 30 30 31 31 31 31 32 32 32 32 33 33 32 32 32 32 31 31 31 31 31 31 31 30 31 31 32 32 33 33
8 9 9 10 11 11 11 12 13 13 13 14 14 15 15 16 17 18 18 19 18 18 17 17 17 18 18 19 19 20 21 21 22 23 23 24 25 26 26 27 27 27 28 28 28 28 28 29 29 29 30 30 30 30 30 31 31 31 31 31 32 32 32 32 32 33 33 33 33 33 33 32 32 32 31 31 31 31 31 31 31 31 32 32 32
9 9 10 10 10 11 12 13 13 13 13 13 14 15 16 16 17 18 19 19 19 18 18 18 18 19 19 20 20 21 22 23 24 24 25 26 26 26 27 27 27 27 28 28 28 28 29 29 30 30 30 31 31 31 31 31 31 31 32 32 32 32 32 32 32 32 32 33 33 33 33 33 33 33 32 32 32 32 32 31 31 32 32 32 32
9 10 11 11 11 12 13 14 13 13 13 14 14 15 16 17 18 19 20 20 19 19 20 20 20 20 20 21 22 23 24 24 25 25 26 26 27 27 27 28 27 28 28 28 28 28 28 29 29 29 29 30 30 30 30 31 31 31 31 31 31 31 31 31 31 31 31 31 32 32 33 33 33 33 33 32 32 32 32 32 32 32 33 33 33
10 11 11 11 12 13 14 13 13 13 13 14 15 16 17 18 19 20 20 20 20 20 20 21 21 22 22 23 23 24 25 25 26 26 26 27 27 27 28 28 28 28 28 28 28 27 27 27 27 27 27 28 28 28 29 29 29 30 30 30 30 30 30 30 30 30 30 30 31 32 32 32 33 33 33 33 33 32 32 32 32 32 32 33 33
10 11 12 12 13 14 14 13 13 13 14 15 15 17 18 19 20 20 20 20 20 20 21 21 22 23 23 24 25 25 25 26 26 26 26 27 27 27 28 28 28 28 28 27 27 26 26 26 26 26 26 26 26 26 26 26 27 27 28 28 28 28 29 29 29 29 29 30 31 32 32 32 32 33 33 33 33 33 33 33 33 32 32 32 32
10 11 12 13 13 14 13 12 13 14 15 15 16 18 19 19 20 20 20 20 20 21 21 22 23 24 24 25 25 25 25 26 26 26 26 26 26 27 27 27 27 27 27 27 26 25 25 24 24 25 25 24 25 25 24 24 24 25 25 25 26 27 27 28 28 28 29 30 31 32 32 31 31 32 32 32 32 33 34 34 34 33 33 32 32
11 12 13 13 13 13 12 13 14 15 16 17 17 18 19 20 20 20 21 21 21 22 23 24 25 25 25 25 25 25 26 26 25 25 25 26 26 26 26 26 26 26 25 24 24 23 22 22 22 23 22 22 23 23 23 22 22 23 23 23 24 24 25 26 26 27 27 28 29 30 30 30 29 30 31 31 31 32 32 33 34 34 34 33 33
12 13 14 13 13 12 13 14 15 16 17 17 18 19 20 20 20 21 22 22 23 24 25 26 27 26 26 26 26 26 26 25 25 25 25 25 25 25 25 25 25 23 22 21 20 20 19 19 19 19 19 20 20 20 20 20 20 20 20 21 21 22 22 23 23 24 24 25 26 26 26 26 27 28 28 29 29 30 31 32 32 33 33 33 33
13 13 13 13 12 13 14 15 16 17 17 18 19 19 20 20 21 22 23 24 25 26 27 28 28 27 26 26 25 26 26 25 25 26 25 25 24 24 24 23 22 20 19 18 18 18 18 18 17 17 17 18 18 18 18 18 18 17 17 18 18 19 19 19 20 21 21 22 22 23 23 24 24 25 26 26 27 27 28 29 30 31 31 31 32
12 13 13 13 13 14 15 16 16 17 18 18 19 19 20 21 22 24 25 26 27 27 28 28 27 26 26 25 25 25 24 24 24 24 24 23 23 22 22 21 20 19 18 18 18 18 18 18 18 18 18 17 16 16 16 16 15 15 15 16 16 16 17 17 17 18 19 19 19 20 21 21 22 22 24 24 24 25 25 25 26 27 28 29 29
12 12 13 13 14 15 16 16 16 17 18 19 19 20 21 23 23 24 26 26 27 27 27 27 26 25 25 24 24 23 23 23 23 23 22 22 21 21 21 20 20 20 19 18 18 18 18 18 18 18 18 17 16 15 15 14 14 14 14 15 15 15 15 15 16 17 17 17 17 17 18 18 19 19 20 21 22 23 23 23 23 24 25 25 26
12 13 14 14 15 15 16 16 17 17 18 19 19 20 22 23 24 25 25 26 26 26 26 25 25 24 23 23 23 23 23 22 22 22 21 20 20 20 19 19 19 20 19 19 19 19 19 19 19 18 18 17 16 15 15 14 14 14 14 15 15 14 15 15 15 16 15 15 14 14 14 15 16 17 17 18 19 20 21 21 21 22 23 23 24
Wind_Direction
313 309 308 311 314 315 318 321 322 323 322 322 321 319 316 312 307 300 293 292 295 293 285 279 278 277 276 273 266 263 258 252 247 238 229 224 220 218 215 212 211 208 206 206 204 202 202 201 199 198 195 194 193 192 192 191 190 190 190 192 192 193 194 193 194 196 196 195 196 197 197 198 199 200 202 204 206 208 211 213 215 217 219 220 218
308 307 308 310 311 312 316 320 320 319 320 322 320 318 318 316 311 304 298 295 294 290 282 278 277 276 273 270 265 262 257 250 246 241 233 226 221 219 217 214 213 211 209 208 207 205 204 204 203 201 199 197 196 196 196 196 195 195 195 196 197 197 199 198 199 201 202 202 202 203 204 205 206 207 208 210 213 215 217 220 222 225 226 228 226
306 305 309 311 310 312 315 318 319 319 320 321 320 319 319 317 314 309 303 298 295 289 282 278 276 275 273 269 264 259 256 251 245 240 235 228 223 220 218 217 216 214 212 211 209 208 206 206 206 204 203 201 200 200 200 200 200 199 200 200 201 202 203 204 204 206 208 208 209 209 210 211 212 213 214 216 218 220 222 225 227 230 232 232 230
303 304 307 310 310 311 314 318 319 319 321 321 320 321 320 318 314 311 308 304 300 293 285 280 276 275 273 269 263 256 253 251 246 240 234 229 225 222 219 218 217 216 215 213 212 211 209 209 208 207 206 205 205 204 204 204 204 204 204 205 206 207 208 208 209 211 213 213 214 214 215 216 217 217 219 220 222 224 227 229 231 234 235 235 234
303 304 306 309 309 310 313 316 318 319 322 321 320 322 322 320 318 315 312 309 305 298 291 284 279 278 274 269 264 257 251 248 245 240 235 231 228 223 220 219 217 217 217 215 214 213 211 211 211 210 209 209 208 208 208 209 209 209 210 210 210 211 212 213 213 214 216 217 218 219 220 221 221 222 224 225 227 229 231 233 234 235 236 236 238
302 306 308 308 309 310 313 315 316 317 320 320 320 322 322 321 320 318 316 314 310 304 297 289 283 281 276 269 263 256 251 246 242 239 235 232 228 223 221 221 219 219 218 216 216 216 214 213 213 213 213 212 212 211 212 212 213 213 214 214 215 215 216 217 217 217 219 220 221 223 224 225 226 226 228 229 230 232 233 234 235 236 238 239 241
297 303 306 308 309 310 312 313 314 315 318 319 320 321 321 321 320 317 316 317 314 309 304 296 289 285 279 271 262 255 249 245 242 240 235 231 228 225 223 223 222 221 220 219 218 217 217 216 216 215 215 216 216 215 215 215 216 216 217 218 219 219 220 221 221 221 221 222 223 225 226 227 228 229 230 231 232 234 235 236 237 238 240 241 243
293 300 304 306 309 311 311 312 313 314 316 319 321 320 319 321 321 316 315 319 317 312 309 302 295 290 284 274 262 253 247 243 241 238 234 231 229 226 223 223 222 222 222 222 220 219 219 219 219 219 218 218 219 218 218 218 219 219 220 221 222 222 223 224 224 224 224 224 225 226 227 229 231 231 232 233 234 235 237 238 240 241 242 244 245
291 298 301 304 308 310 311 311 312 313 313 315 318 318 318 321 320 317 316 319 319 317 313 307 302 298 292 279 263 249 244 242 239 235 233 232 229 226 224 223 223 224 224 223 222 221 220 221 221 221 222 222 222 222 222 222 222 223 223 224 225 225 226 226 226 227 227 227 228 228 229 230 232 233 234 235 236 237 239 241 242 244 245 246 247
290 295 299 303 307 309 310 309 310 311 311 312 315 316 318 320 320 318 319 321 321 321 318 313 311 308 300 284 263 246 241 240 237 235 234 232 230 227 226 225 225 224 223 223 224 223 222 222 222 224 225 225 225 225 225 226 226 226 226 227 227 228 228 229 229 229 230 230 231 231 231 232 233 235 236 237 238 239 241 242 244 245 247 248 248
288 292 296 301 305 308 309 307 307 308 309 310 313 315 317 320 321 320 322 324 325 327 327 323 320 317 307 287 259 240 237 237 234 235 233 230 229 229 228 227 225 222 221 223 225 225 225 224 224 225 226 227 227 228 228 229 230 230 230 230 230 230 231 232 232 232 232 232 233 233 234 235 235 236 237 239 240 241 242 243 245 246 247 248 248
286 289 293 298 303 306 307 306 305 305 306 308 310 313 316 319 322 323 324 328 331 334 336 334 332 329 321 296 253 234 234 235 233 232 232 231 231 230 230 228 225 223 223 224 225 226 227 227 226 227 228 229 230 230 231 232 233 233 233 232 233 233 233 234 234 234 235 235 235 235 236 237 237 238 239 240 241 242 243 244 246 247 247 248 248
284 285 288 294 300 303 305 305 303 301 302 304 306 308 313 317 323 326 327 329 332 336 339 343 346 347 346 334 257 234 232 233 232 231 233 235 234 232 232 230 227 226 227 227 226 226 228 229 229 229 230 231 232 232 233 234 235 235 235 235 235 235 235 236 236 236 237 237 237 238 238 238 239 240 240 241 242 243 244 245 245 246 247 247 248
280 282 285 290 295 299 301 301 300 299 298 300 301 305 312 317 321 325 326 326 328 337 344 349 356 2 8 16 3 247 235 236 235 232 232 234 234 232 231 230 228 228 228 228 228 228 229 230 230 231 232 233 235 235 235 235 236 236 236 237 237 237 237 238 238 238 238 238 238 239 239 240 240 240 241 241 242 243 243 244 245 245 246 246 247
277 279 282 286 290 294 296 297 297 295 292 294 297 303 313 318 319 322 325 324 326 337 346 347 351 4 16 21 18 0 253 255 242 231 229 230 231 229 227 228 228 229 229 229 230 229 230 231 231 233 233 234 235 236 237 237 237 238 238 238 239 239 239 239 240 240 240 240 240 240 240 240 241 241 242 242 242 243 243 244 244 244 245 245 245
276 277 280 283 287 290 291 292 291 288 286 286 289 298 310 316 318 321 321 321 325 334 342 341 338 351 7 10 9 20 5 277 241 226 227 228 229 228 227 228 229 230 231 232 232 233 234 234 235 236 236 236 236 236 238 239 240 240 240 240 240 240 240 240 241 241 241 241 241 241 241 242 242 242 243 243 243 244 244 244 244 245 245 245 246
273 275 278 282 285 286 286 285 282 281 279 278 284 294 304 313 316 316 311 311 320 325 331 336 329 330 340 340 337 335 313 289 257 238 238 234 234 233 230 230 230 231 232 234 235 237 237 238 238 239 239 239 238 238 239 240 241 242 242 242 242 242 242 242 242 242 242 242 243 243 243 243 243 244 244 244 245 245 245 245 245 246 246 246 247
272 274 278 281 282 282 281 275 271 274 275 277 285 290 297 307 310 309 306 309 321 323 321 321 312 305 307 306 300 292 290 292 278 264 260 246 239 237 234 234 234 233 234 236 237 239 239 240 240 240 241 241 241 241 242 242 242 242 243 244 244 244 243 243 243 243 243 243 244 244 244 245 245 245 245 245 246 246 246 246 246 247 247 247 248
271 274 277 281 281 277 270 264 265 271 273 277 284 288 294 301 303 304 308 313 315 316 316 308 293 287 287 291 288 282 282 282 273 269 272 262 248 240 237 236 237 239 240 241 241 242 243 243 243 243 243 242 243 243 244 244 244 244 245 246 246 245 245 245 244 244 244 244 245 245 245 246 246 246 246 246 247 247 247 247 247 247 248 248 249
269 273 277 279 276 267 258 256 262 268 271 275 284 291 292 295 301 302 303 309 305 305 310 304 288 282 282 285 286 284 282 279 272 268 268 267 262 252 245 242 241 242 243 245 245 246 247 247 246 246 246 246 245 245 246 246 246 247 247 247 247 247 247 246 245 245 246 246 246 246 247 247 247 246 246 246 247 247 248 248 248 248 249 249 249
267 269 272 271 265 256 249 253 260 263 267 277 295 303 294 291 302 301 295 298 297 297 303 299 287 280 279 281 284 283 282 281 277 271 266 265 263 259 254 254 252 250 250 250 250 250 251 250 249 249 249 249 249 249 249 249 249 249 249 249 249 248 248 247 247 247 247 247 247 247 247 247 247 247 247 247 247 247 248 248 249 249 250 250 250
265 263 262 260 252 246 245 251 261 264 271 284 299 307 302 296 302 304 298 295 296 298 300 296 289 283 280 279 280 280 279 280 278 272 267 264 264 264 263 261 261 261 259 258 257 257 256 254 253 252 252 252 252 252 252 252 252 252 252 252 251 250 249 248 248 248 249 249 248 248 248 248 248 248 247 247 247 247 247 248 249 250 250 251 251
258 252 249 248 240 239 244 252 266 277 285 290 294 300 300 298 300 302 300 297 299 302 299 294 290 287 286 283 279 277 276 277 277 272 266 264 265 268 268 264 262 263 263 263 261 261 261 259 257 257 256 256 255 255 255 255 255 255 255 255 255 254 253 253 252 251 251 252 251 249 249 249 249 248 248 248 248 248 248 249 250 250 251 252 252
233 230 229 230 228 237 253 264 281 289 288 286 288 294 297 297 297 298 299 298 299 299 296 294 291 287 287 287 283 279 275 274 275 273 270 267 266 267 267 265 264 263 263 264 263 263 263 262 262 262 262 261 259 258 258 258 258 258 257 257 257 257 257 257 257 255 254 254 254 253 252 252 252 252 252 251 251 251 251 252 252 252 252 252 252
196 201 209 217 222 243 270 284 292 294 288 283 285 290 294 297 299 299 299 298 295 293 292 291 290 287 286 286 284 282 280 277 274 273 272 270 269 269 268 267 266 266 265 264 263 264 264 264 264 265 265 264 262 261 261 261 261 261 260 259 258 257 257 256 256 256 255 256 256 256 256 256 257 256 256 256 255 254 255 255 254 253 252 252 252
195 207 227 238 243 255 277 290 295 299 297 296 296 296 297 300 302 301 299 296 293 292 292 290 289 287 285 284 282 281 282 280 277 276 275 273 272 270 271 271 270 270 270 267 265 265 264 264 264 264 265 264 263 262 261 262 262 263 263 262 261 262 261 260 259 258 257 258 258 258 257 258 259 258 257 256 255 256 256 255 255 254 253 253 253
234 246 251 251 251 261 281 297 302 307 307 307 307 304 303 304 304 303 301 298 294 293 292 291 290 289 286 284 282 281 281 281 279 278 277 276 275 273 273 274 274 273 272 270 268 266 265 264 263 263 262 263 263 262 262 262 262 263 264 264 262 263 263 264 263 261 259 260 261 260 260 260 260 259 258 257 255 255 256 256 256 255 254 254 254
255 258 260 252 259 277 294 298 297 300 303 305 306 304 304 305 305 305 303 299 297 295 293 292 291 290 287 285 284 282 282 282 281 280 279 278 277 277 276 276 275 274 274 272 270 269 267 266 265 264 262 262 263 263 262 262 263 263 265 265 263 263 263 263 263 261 260 261 262 262 262 262 262 261 260 260 258 257 257 257 257 257 256 255 254
252 267 280 272 276 284 290 294 294 295 297 300 303 302 303 305 305 306 305 301 299 297 296 294 292 291 290 288 287 285 284 284 284 283 282 280 278 278 279 278 275 274 274 273 271 270 269 268 267 266 265 264 264 265 264 263 262 263 263 264 263 263 263 263 263 262 261 261 262 262 262 262 262 261 260 260 260 259 258 258 258 258 257 256 255
236 271 297 294 292 290 292 300 301 301 301 300 301 301 302 304 305 305 305 303 301 299 298 297 294 292 291 290 289 287 286 285 285 284 283 282 280 279 279 280 278 276 275 273 272 270 271 270 268 266 266 266 266 266 266 265 263 263 263 263 263 262 263 263 263 263 262 261 262 262 262 262 262 261 260 260 260 259 259 259 258 258 258 257 256
179 305 319 310 302 299 299 303 302 301 302 302 302 303 303 305 306 305 304 304 303 301 300 298 295 293 292 290 289 288 286 285 284 284 284 283 282 281 281 281 281 280 277 275 272 272 273 272 269 268 268 268 267 266 266 266 265 265 264 264 264 263 263 263 263 263 262 262 262 262 262 261 261 260 260 260 260 259 259 259 259 258 258 257 257
319 314 311 305 300 300 302 303 303 303 304 305 306 306 307 308 309 309 307 306 304 302 301 299 298 296 294 292 290 288 287 285 284 284 284 283 283 282 282 282 281 281 279 277 274 273 273 273 271 270 270 269 268 267 266 266 266 266 266 265 265 265 264 264 264 264 263 263 263 263 262 261 261 260 260 260 260 259 259 259 258 258 258 258 257
317 310 309 307 304 305 307 307 309 309 308 308 309 309 311 312 312 312 312 310 307 303 301 299 298 297 295 293 291 289 288 287 286 285 284 283 283 282 283 283 283 282 281 279 277 275 274 273 272 272 272 271 270 269 268 267 267 267 266 266 266 265 265 265 265 265 265 264 264 263 262 262 261 261 260 260 260 259 258 258 258 258 258 258 257
315 312 311 311 310 311 313 313 313 312 310 310 311 312 313 314 315 315 315 314 310 305 301 298 297 296 295 293 292 291 290 289 288 286 285 284 284 284 284 284 284 283 281 280 278 277 275 274 274 273 272 272 271 270 269 269 268 268 267 266 266 267 266 266 266 266 266 266 266 264 263 262 261 261 261 260 259 259 258 257 258 258 258 257 257
317 317 315 315 314 313 314 314 313 312 311 312 313 313 313 314 315 315 315 315 312 307 302 298 296 296 295 294 293 293 292 291 290 288 287 287 287 286 285 285 285 284 283 281 279 278 277 276 275 274 273 272 271 271 270 270 270 269 268 268 267 267 267 266 266 265 265 266 266 265 264 264 263 263 262 262 261 259 258 257 257 257 257 256 256
320 319 318 317 317 316 315 314 313 313 313 313 314 314 314 314 314 315 315 314 311 308 305 301 297 296 296 296 295 295 295 294 293 291 289 289 289 289 288 287 287 286 284 283 281 280 279 278 277 275 274 273 272 272 271 271 271 270 269 268 267 267 266 266 265 265 265 266 266 265 265 265 265 264 264 264 263 261 258 257 256 256 256 256 256
320 319 320 319 318 318 316 314 314 314 314 314 314 315 314 314 315 315 314 313 311 309 307 304 300 296 296 296 296 296 296 295 294 292 292 292 291 291 290 289 288 287 286 284 283 281 280 280 279 277 276 274 273 273 272 272 272 271 270 269 267 267 266 265 265 265 265 265 265 265 265 265 265 264 263 263 263 262 260 258 257 256 256 256 256
321 319 320 319 317 317 318 317 317 316 315 314 315 315 315 316 317 316 315 314 312 310 308 306 302 298 297 297 297 297 296 295 295 294 294 294 292 292 291 290 290 289 287 286 284 283 282 281 280 279 277 276 274 273 273 272 273 272 271 270 268 268 267 266 266 265 265 265 264 264 264 264 264 263 262 262 262 262 261 259 257 257 256 256 256
319 319 319 319 319 319 319 319 318 317 315 315 316 317 317 319 319 318 317 316 314 312 309 307 304 300 299 299 299 298 297 297 296 296 295 294 293 292 292 291 290 289 288 287 286 284 283 282 281 280 279 277 276 274 273 273 273 272 271 270 269 268 268 267 266 266 265 265 264 264 263 263 262 262 262 261 261 261 260 259 258 257 256 256 255
319 319 320 321 322 322 321 320 320 318 317 317 317 318 320 321 321 321 320 318 316 314 310 307 304 302 301 301 301 300 299 299 298 297 296 296 295 294 293 292 291 290 288 287 286 285 284 283 282 281 280 279 277 276 275 275 274 273 272 271 270 270 268 267 267 266 266 265 264 263 263 262 262 262 262 261 261 261 260 259 258 257 256 255 254
320 319 320 322 323 323 322 322 321 320 319 319 318 319 321 322 322 322 320 318 316 314 311 308 306 305 304 304 303 302 301 301 300 299 298 298 297 296 295 294 293 291 290 288 287 286 285 284 283 282 281 280 279 277 277 276 275 274 273 272 271 271 270 269 268 266 265 264 263 262 262 262 262 262 262 261 261 260 260 259 258 257 256 255 254
320 319 320 321 322 322 321 321 320 319 319 320 320 321 321 322 322 322 320 318 316 314 312 310 308 307 306 305 304 303 303 302 301 300 300 299 298 297 297 296 295 293 292 290 288 287 286 285 284 283 282 280 279 278 277 276 275 274 273 273 272 271 270 270 268 267 265 264 264 263 262 261 261 261 261 260 260 260 259 258 258 257 257 256 255
322 321 322 322 322 321 320 319 318 318 320 321 321 321 322 322 322 322 321 319 316 314 313 311 310 308 306 304 303 302 302 301 300 300 300 300 299 299 298 297 296 295 293 292 290 289 288 286 285 284 283 282 281 279 278 277 276 275 274 273 272 272 271 270 268 267 266 265 265 264 263 262 261 261 260 259 259 259 258 258 258 258 258 257 256
324 325 325 323 321 320 319 318 317 318 321 321 321 321 322 323 323 323 322 321 319 317 315 312 310 308 306 305 303 302 302 301 300 300 300 300 300 300 300 299 298 296 294 293 291 289 288 287 286 285 283 283 282 281 280 279 277 276 275 274 273 273 272 270 269 267 266 266 267 266 264 263 262 261 260 259 258 258 258 258 258 258 258 257 256
326 327 327 324 322 322 320 318 318 319 321 320 321 322 322 323 324 325 324 322 321 319 318 315 313 310 308 307 306 305 304 303 302 301 302 302 303 303 302 300 299 298 296 293 291 289 288 287 287 286 285 284 283 282 281 280 280 279 277 276 275 274 273 271 270 269 268 268 268 267 265 264 263 262 261 260 259 258 258 257 257 257 257 256 256
327 328 327 325 325 325 323 321 320 321 321 321 321 322 322 323 324 325 324 322 320 320 319 318 316 313 311 309 308 307 306 304 303 303 304 304 304 304 303 302 300 299 297 294 292 290 289 288 288 287 287 285 284 283 282 281 281 280 279 278 277 276 274 273 272 271 269 268 268 267 265 263 262 262 262 261 261 260 258 258 257 256 256 255 255
326 327 327 327 328 327 324 323 323 322 321 321 321 322 323 324 324 325 324 322 321 320 320 319 318 315 312 310 308 307 307 306 305 305 305 304 304 304 303 302 301 301 299 297 294 292 290 289 289 289 289 288 286 284 283 283 282 282 281 281 280 278 276 275 273 272 270 269 267 266 264 263 262 262 262 262 262 261 259 258 257 256 255 254 254
327 327 329 329 329 327 325 324 323 322 321 321 323 323 324 324 324 324 324 323 323 322 321 320 318 316 314 312 311 310 309 308 307 306 306 305 304 304 304 303 303 302 301 298 296 293 292 291 291 291 291 291 289 287 285 284 284 284 285 284 282 281 279 277 276 274 272 271 268 266 265 263 262 262 263 263 263 262 260 258 257 256 255 254 254
328 329 329 329 328 327 325 324 324 324 324 324 325 325 325 325 325 325 325 325 324 323 323 322 321 319 317 316 314 313 311 310 309 308 307 307 307 306 306 305 305 303 301 299 296 293 291 290 290 290 291 291 291 289 287 285 285 286 286 286 286 285 282 281 280 278 276 275 273 270 267 265 263 263 263 262 262 262 260 258 257 256 255 255 255
329 329 328 327 327 326 326 326 326 327 327 326 326 326 326 327 327 327 326 326 326 326 325 325 324 322 321 319 318 317 315 314 313 312 311 310 310 309 308 307 306 304 302 299 297 295 292 291 290 290 290 290 289 288 288 286 285 285 284 285 287 286 284 283 283 282 281 280 278 274 269 267 265 264 264 263 262 260 259 257 256 256 255 255 255
328 327 326 327 328 328 331 331 331 330 329 328 327 327 328 329 328 328 328 328 328 328 328 328 327 326 325 323 322 321 319 318 317 316 315 313 312 311 310 309 307 305 304 301 299 297 295 293 291 290 289 288 287 287 287 286 285 285 284 285 286 285 283 282 284 284 283 283 283 279 273 271 269 267 266 265 263 260 258 256 256 255 255 254 254